Location: STAR School
(35.3054°N, 111.2976°W)
Time: 20:07:42
(UTC-07:00)

Transit 2A Rocket - Pass Details

Date: 30 May 2019
Orbit: 586 x 917 km, 66.7° (Epoch: 18 June)

Event Time Altitude Azimuth Distance (km) Brightness Sun altitude
Rises 01:35:59 0° 330° (NNW) 3,330 8.8 -30.4°
Reaches altitude 10° 01:38:32 10° 328° (NNW) 2,343 7.9 -30.2°
Enters shadow 01:41:50 37° 319° (NW) 1,156 6.0 -29.9°
